Content
SEND FEEDBACK

Daily
Averages
Monthly
Summary
United States of America

RIMROCK, ARIZONA


Home > North America > United States > Arizona
Elevation: 3830 feet     Latitude: 34 40N     Longitude: 111 43W

WEATHER
 
SELECT A DAY
Number of Records: 130,842;   Date Range: 1/4/95 - 9/18/14
 
SHARE

PRINT THIS DATA

[ ← Previous Day ]
WEATHER ALMANAC - MARCH 6, 2014
[ Next Day → ]
[ °C ]   °F
Weather ElementAverageHighLow
Temperature55.3 °F68 °F (3:55 pm)48.2 °F (3:15 am)
Dewpoint27.6 °F32 °F (9:50 am)23 °F (4:15 am)
Humidity35 %44 % (9:50 am)24 % (3:55 pm)
Barometer30.09 in30.17 in (12:35 am)29.99 in (5:55 pm)
Wind Speed7.2 mph15 mph (1:15 am)
Wind Gust18.4 mph (4:15 am)
Weather ElementAverage
Visibility10 mi
Wind DirectionESE (97.3 °)

Weather ElementTotal
Precipitation---
Heating Degree Days6.9 (Base 65)
Growing Degree Days8.1 (Base 50)
Averaged from 71 records on March 6, 2014
WEATHER CONDITIONS BREAKOUT
WIND DIRECTION BREAKOUT
WEATHER BY HOUR - MARCH 6, 2014
[ °C ]   °F
Local TimeTemperatureDewpointHumidityBarometerVisibilityWind DirectionWind SpeedGust SpeedPrecipitationEventsConditions
12:35 AM51.8 °F26.6 °F38 %30.17 in10.0 miNE (40°)13.8 mphClear
12:55 AM51.8 °F26.6 °F38 %30.17 in10.0 miNE (40°)13.8 mphClear
1:15 AM50.0 °F26.6 °F40 %30.16 in10.0 miNE (40°)15.0 mphClear
1:35 AM50.0 °F26.6 °F40 %30.16 in10.0 miNE (50°)15.0 mphClear
1:55 AM50.0 °F26.6 °F40 %30.15 in10.0 miNE (40°)13.8 mphClear
2:15 AM50.0 °F26.6 °F40 %30.15 in10.0 miNE (40°)12.7 mphClear
2:35 AM50.0 °F26.6 °F40 %30.14 in10.0 miNE (50°)11.5 mphClear
2:55 AM50.0 °F26.6 °F40 %30.14 in10.0 miNE (50°)9.2 mphClear
3:15 AM48.2 °F26.6 °F43 %30.13 in10.0 miNE (40°)10.4 mphClear
3:35 AM48.2 °F26.6 °F43 %30.13 in10.0 miNE (40°)11.5 mphClear
3:55 AM48.2 °F24.8 °F40 %30.13 in10.0 miNE (50°)13.8 mphClear
4:15 AM48.2 °F23.0 °F37 %30.13 in10.0 miNE (50°)12.7 mph18.4 mphClear
4:35 AM48.2 °F23.0 °F37 %30.14 in10.0 miNE (50°)12.7 mphClear
4:55 AM50.0 °F23.0 °F35 %30.15 in10.0 miNE (40°)10.4 mphClear
5:10 AM50.0 °F23.0 °F35 %30.15 in10.0 miNE (40°)12.7 mphClear
5:35 AM50.0 °F23.0 °F35 %30.15 in10.0 miNE (50°)12.7 mphClear
5:55 AM50.0 °F23.0 °F35 %30.15 in10.0 miNE (40°)15.0 mphClear
6:15 AM50.0 °F23.0 °F35 %30.15 in10.0 miNE (50°)12.7 mphClear
6:35 AM50.0 °F23.0 °F35 %30.15 in10.0 miNE (50°)11.5 mphClear
6:55 AM48.2 °F23.0 °F37 %30.15 in10.0 miNE (50°)10.4 mphClear
7:15 AM50.0 °F23.0 °F35 %30.15 in10.0 miENE (60°)10.4 mphClear
7:35 AM50.0 °F23.0 °F35 %30.15 in10.0 miENE (60°)5.8 mphClear
7:55 AM50.0 °F24.8 °F37 %30.15 in10.0 miNNE (30°)4.6 mphClear
8:15 AM50.0 °F24.8 °F37 %30.15 in10.0 miNE (40°)6.9 mphClear
8:35 AM51.8 °F24.8 °F35 %30.15 in10.0 miENE (60°)10.4 mphClear
8:55 AM53.6 °F26.6 °F35 %30.15 in10.0 miENE (70°)6.9 mphClear
9:15 AM53.6 °F28.4 °F38 %30.14 in10.0 miEast (90°)5.8 mphClear
9:35 AM53.6 °F28.4 °F38 %30.15 in10.0 miNNE (30°)4.6 mphClear
9:50 AM53.6 °F32.0 °F44 %30.15 in10.0 miESE (120°)3.5 mphClear
10:15 AM53.6 °F32.0 °F44 %30.16 in10.0 miCalmClear
10:35 AM53.6 °F32.0 °F44 %30.15 in10.0 miSE (140°)3.5 mphClear
10:55 AM53.6 °F30.2 °F41 %30.15 in10.0 miCalmClear
11:15 AM55.4 °F30.2 °F38 %30.15 in10.0 miCalmClear
11:35 AM55.4 °F32.0 °F41 %30.15 in10.0 miCalmClear
11:55 AM59.0 °F30.2 °F34 %30.15 in10.0 miCalmClear
12:15 PM60.8 °F28.4 °F29 %30.14 in10.0 miCalmClear
12:35 PM62.6 °F28.4 °F27 %30.12 in10.0 miSE (140°)4.6 mphClear
12:55 PM64.4 °F28.4 °F26 %30.11 in10.0 miSSE (160°)5.8 mphClear
1:15 PM64.4 °F28.4 °F26 %30.09 in10.0 miSSE (160°)5.8 mphClear
1:35 PM62.6 °F28.4 °F27 %30.09 in10.0 miSouth (170°)3.5 mphScattered Clouds
1:55 PM62.6 °F28.4 °F27 %30.08 in10.0 miSW (230°)6.9 mphClear
2:15 PM64.4 °F30.2 °F28 %30.07 in10.0 miSouth (190°)6.9 mphClear
2:35 PM62.6 °F30.2 °F30 %30.07 in10.0 miSouth (190°)5.8 mphClear
2:55 PM62.6 °F30.2 °F30 %30.06 in10.0 miCalmClear
3:15 PM64.4 °F30.2 °F28 %30.05 in10.0 miSouth (190°)3.5 mphClear
3:35 PM64.4 °F30.2 °F28 %30.04 in10.0 miSouth (170°)5.8 mphClear
3:55 PM68.0 °F30.2 °F24 %30.04 in10.0 miSSW (200°)6.9 mphClear
4:15 PM64.4 °F30.2 °F28 %30.02 in10.0 miSSE (160°)6.9 mphClear
4:35 PM66.2 °F28.4 °F24 %30.03 in10.0 miSSW (210°)9.2 mphClear
4:55 PM64.4 °F28.4 °F26 %30.02 in10.0 miSSW (210°)9.2 mphClear
5:15 PM62.6 °F30.2 °F30 %30.02 in10.0 miSouth (170°)6.9 mphClear
5:35 PM62.6 °F28.4 °F27 %30.00 in10.0 miSW (220°)5.8 mphClear
5:55 PM60.8 °F28.4 °F29 %29.99 in10.0 miSouth (170°)8.1 mphClear
6:15 PM60.8 °F28.4 °F29 %30.00 in10.0 miSouth (190°)5.8 mphClear
6:35 PM59.0 °F28.4 °F31 %30.00 in10.0 miSSW (200°)6.9 mphClear
6:55 PM59.0 °F26.6 °F29 %29.99 in10.0 miSouth (190°)6.9 mphClear
7:15 PM59.0 °F26.6 °F29 %30.00 in10.0 miSSW (200°)8.1 mphClear
7:35 PM59.0 °F26.6 °F29 %29.99 in10.0 miSouth (190°)9.2 mphClear
7:55 PM59.0 °F28.4 °F31 %30.00 in10.0 miSouth (190°)6.9 mphClear
8:15 PM55.4 °F28.4 °F36 %30.01 in10.0 miSSW (200°)5.8 mphClear
8:35 PM55.4 °F28.4 °F36 %30.02 in10.0 miSouth (180°)4.6 mphClear
8:55 PM53.6 °F28.4 °F38 %30.00 in10.0 miSSE (160°)6.9 mphClear
9:15 PM53.6 °F30.2 °F41 %30.00 in10.0 miSE (140°)6.9 mphClear
9:35 PM53.6 °F28.4 °F38 %30.00 in10.0 miSSE (160°)8.1 mphClear
9:55 PM53.6 °F30.2 °F41 %30.00 in10.0 miSSE (160°)4.6 mphClear
10:15 PM51.8 °F28.4 °F41 %30.00 in10.0 miSSE (150°)3.5 mphClear
10:35 PM51.8 °F30.2 °F44 %30.00 in10.0 miCalmClear
10:55 PM53.6 °F28.4 °F38 %30.01 in10.0 miCalmClear
11:15 PM53.6 °F28.4 °F38 %30.01 in10.0 miCalmClear
11:35 PM51.8 °F28.4 °F41 %30.01 in10.0 miNNE (30°)3.5 mphClear
11:55 PM50.0 °F28.4 °F43 %30.00 in10.0 miNNE (30°)5.8 mphClear
Hourly data recorded from KSEZ, located miles away from Rimrock, Arizona







STORIES FROM OUR PARTNERS